Flag for Germany Weather past 2 weeks in Marburg, Hesse, Germany

Now
46 °F

Cool.


Feels Like: 44 °F
Forecast: 37 / 54 °F
Wind: 5 mph from West

Location: Giessen

Current Time: Oct 23, 2014 at 4:07:07 AM

Latest Report: Oct 23, 2014 at 3:00 AM


Visibility: 19 mi

Pressure: 30.18 "Hg

Humidity: 89%

Dew point: 43 °F

Location of MarburgLocation

Historic Weather in Marburg — Graph

°F

Marburg temperature yesterday

Maximum temperature yesterday: 49 °F (at 6:00 PM)
Minimum temperature yesterday: 42 °F (at 3:00 AM)
Average temperature yesterday: 46 °F

Past Weeks' High & Low Weather Summary

 TemperatureHumidityPressure
High70 °F (Oct 19, 4:00 PM)100% (Oct 12, 5:00 AM)30.20 "Hg (Oct 12, 5:00 AM)
Low42 °F (Oct 22, 3:00 AM)61% (Oct 15, 4:00 PM)29.50 "Hg (Oct 21, 6:00 PM)
Average55 °F93%29.90 "Hg
* Reported Oct 8 3:00 AM — Oct 23 3:00 AM, Marburg, Weather by CustomWeather, © 2014

Note: Actual official high and low records may vary slightly from our data, if they occured in-between our weather recording intervals... More about our weather records

Advertising

Marburg weather history for previous 24 hours

 ConditionsComfort  
Time TempWeatherWind HumidityBarometerVisibility
3:00 AM
Oct 23
46 °FCool.5 mph89%30.18 "Hg19 mi
2:00 AM46 °FCool.3 mph88%30.16 "Hg17 mi
1:00 AM47 °FCool.3 mph82%30.15 "Hg19 mi
12:00 AM48 °FCool.5 mph73%30.14 "Hg19 mi
11:00 PM
Oct 22
48 °FCool.9 mph72%30.12 "Hg19 mi
10:00 PM49 °FCool.8 mph70%30.10 "Hg22 mi
9:00 PM48 °FCool.5 mph75%30.09 "Hg19 mi
8:00 PM48 °FCool.5 mph75%30.07 "Hg22 mi
7:00 PM49 °FCool.5 mph78%30.03 "Hg19 mi
6:00 PM49 °FCool.9 mph74%30.00 "Hg25 mi
5:00 PM49 °FCool.8 mph78%29.98 "Hg25 mi
4:00 PM49 °FCool.8 mph79%29.97 "Hg25 mi
3:00 PM47 °FLight freezing rain. Cloudy.8 mph85%29.97 "Hg9 mi
2:00 PM47 °FRain. Cloudy.9 mph86%29.97 "Hg19 mi
1:00 PM46 °FCool.8 mph86%29.98 "Hg17 mi
12:00 PM45 °FLight freezing rain. Cloudy.7 mph89%29.98 "Hg15 mi
11:00 AM45 °FLight rain. Cloudy.8 mph89%29.97 "Hg13 mi
10:00 AM45 °FQuite cool.7 mph87%29.97 "Hg19 mi
9:00 AM44 °FRain. Cloudy.7 mph90%29.94 "Hg4 mi
8:00 AM44 °FDrizzle. Cloudy.8 mph86%29.91 "Hg10 mi
7:00 AM45 °FQuite cool.8 mph84%29.89 "Hg14 mi
6:00 AM44 °FQuite cool.8 mph87%29.88 "Hg17 mi
5:00 AM44 °FQuite cool.8 mph90%29.86 "Hg25 mi
4:00 AM43 °FQuite cool.7 mph92%29.87 "Hg25 mi
Weather by CustomWeather, © 2014

See weather overviewHow to use our weather pages